Showing default

TIROS 1, 29

Orbit data source: Space-Track

TIROS 1, 29 is a payload satellite owned by GSFC (US) in LEO that was launched on Fri, 01 Apr 1960 UTC via a THOR ABLE II launch vehicle from the Air Force Eastern Test Range (AFETR). Payload-class satellites include a variety of spacecraft equipped with specific instruments for various scientific and technological missions. These include communications satellites like Starlink; space stations such as the ISS; scientific satellites like the Hubble; Earth observation satellites from companies like Planet Labs, Umbra, and HawkEye 360; GPS; miniature CubeSats for education and research; and military/defense satellites.

Loading next visibility...
Identifier
29, 1960-002B
Orbit
LEO
Country
Flag of USUS
Related business
Manufacturer
RCA/East Windsor
Mission
Non-operational spacecraft
Bus & Motor
TIROS, Unknown motor
Mass
122 kg wet, 122 kg dry
Launch date (UTC)
1960-04-01 (66 years ago)
Launch vehicle
THOR ABLE II
Launch site
Air Force Eastern Test Range (AFETR)
Object type
Payload
Rocket body
Debris
Shape & HBR
Unknown
Radar Cross Section
Medium (>0.1 m² and <1 m²)

Expand to show TLE details & history
Last TLE update: 8 hours ago

TLE from 8 hours ago
0 TIROS 1
1    29U 60002B   26122.38808693  .00000579  00000-0  10680-3 0  9996
2    29  48.3780 242.2957 0021583  71.2691 289.0563 14.78719536535354
Epoch: 2026-05-02T09:18Z
TLE epoch observation values (Epoch: 2026-05-02T09:18:50.710Z)
Latitude
Longitude
-117.7223°
Altitude
628.825 km
Speed
7.548 km/s
True Right ascension
16h 09m 10s
True Declination
0° 00' 00"
Sunlit
Object was in full shadow at epoch
Visualization orbit readout
Latitude
Unknown
Longitude
Unknown
Altitude
Unknown
Speed
Unknown
Apparent Right ascension
Unknown
Apparent Declination
Unknown
Sunlit
N/A
Visualization observer readout
Local Sidereal Time
00:42:06
Azimuth
Unknown
Elevation
Unknown
Doppler factor
Unknown
Orbital elements
Apogee altitude
649.525 km
Perigee altitude
619.254 km
Semi-major axis
7,012.526 km
Eccentricity
0.00216
Inclination
48.378°
RAAN
242.2957°
Arg. of periapsis
71.2691°
True anomaly
288.82233°
Mean anomaly
289.0563°
Eccentric anomaly
288.93933°
Mean motion
3.696 °/min
Orbital period
97.4 mins
BSTAR
0.0001068
Loading maneuver chart data...
Computing Atmospheric mass density...
Loading historical data...
Loading historical data...
Loading historical data...
Loading historical data...
Loading historical data...
Loading historical data...
Loading historical data...
Other satellites on launch #2 in the year 1960 (1960-04-01 UTC)

Documentation

Showing up to 5 results
|